Probability
0 0 0 0 0 0 0 0 0 0 0 0 0 0 0 0 0 0 0 0 0 0 0 0 0 0 0 0 0 0 0 0 0 0 0 0 1 2 3 4 6 6 4 3 2 1 0 0 0
0 0 0 0 0 0 0 0 0 0 0 0 0 0 0 0 0 0 0 0 0 0 0 0 0 0 0 0 0 0 0 0 0 0 0 0 0 1 2 4 5 5 4 2 1 0 0 0 0
0 0 0 0 0 0 0 0 0 0 0 0 0 1 1 1 0 0 0 0 0 0 0 0 1 1 1 0 0 0 0 0 0 0 0 0 0 1 2 4 4 4 3 1 0 0 0 0 0
0 0 0 0 0 0 0 0 0 0 0 0 1 2 2 2 1 0 0 0 0 0 0 1 1 2 2 1 0 0 0 0 0 0 0 0 0 1 2 2 2 2 1 0 0 0 0 0 0
0 0 0 0 0 0 0 0 0 0 0 0 1 2 3 2 1 0 0 0 0 1 1 2 3 3 2 1 0 0 0 0 1 1 0 0 0 1 1 1 1 1 0 0 0 0 0 0 0
0 0 0 0 0 0 0 0 0 0 0 0 1 2 3 2 0 0 0 0 0 1 3 4 4 3 2 1 0 0 0 0 1 1 0 0 0 0 0 0 0 1 0 0 0 0 0 0 0
0 0 0 0 0 0 0 0 0 0 0 0 1 2 3 2 1 0 0 1 1 1 3 5 4 2 1 0 0 0 0 0 1 1 0 0 0 0 0 0 0 0 0 0 0 0 0 0 0
0 0 0 0 0 0 0 0 0 0 0 0 1 2 3 2 1 1 1 2 2 1 3 4 4 3 2 1 0 0 0 0 0 0 0 0 0 0 0 0 0 0 0 0 0 0 0 0 0
0 0 0 0 0 0 0 0 0 0 0 0 1 2 2 1 1 2 3 4 3 1 1 3 4 4 3 2 1 0 0 0 0 0 0 0 0 0 0 0 0 0 0 0 0 0 0 0 0
0 0 0 0 0 0 0 0 0 0 0 0 0 1 1 0 1 2 4 4 3 1 0 1 3 4 4 3 1 1 1 0 0 0 0 0 0 0 0 0 0 0 0 0 0 0 0 0 0
0 0 0 0 0 0 0 0 0 0 0 0 0 0 0 0 0 2 3 4 3 1 0 1 3 5 5 4 3 2 2 1 0 0 0 0 0 0 0 0 0 0 0 0 0 0 0 0 0
0 0 0 0 0 0 0 0 0 0 0 0 0 0 0 0 0 1 2 3 2 1 0 1 2 3 4 3 3 3 3 2 1 1 0 0 0 0 0 0 0 0 0 0 0 0 0 0 0
0 0 0 0 0 0 0 0 0 0 0 0 0 0 0 0 0 0 1 1 1 0 0 1 1 1 2 2 2 2 2 2 2 2 1 0 0 0 0 0 0 0 0 0 0 0 0 0 0
0 0 0 0 0 0 0 0 0 0 0 0 0 0 0 0 0 0 0 0 0 0 0 1 1 1 2 3 2 1 1 1 2 3 2 1 0 0 0 0 0 0 0 0 0 0 0 0 0
0 0 0 0 0 0 0 0 0 0 0 0 0 0 0 0 0 0 0 0 0 0 0 0 1 2 3 3 3 1 0 0 1 2 3 2 1 0 0 0 0 0 0 0 0 0 0 0 0
0 0 0 0 0 0 0 0 0 0 0 0 0 0 0 0 0 0 0 0 0 0 0 0 0 1 2 3 3 3 1 1 0 1 3 3 2 0 0 0 0 0 0 0 0 0 0 0 0
0 0 0 0 0 0 0 0 0 0 0 0 0 0 0 0 0 0 0 0 0 0 0 0 0 1 2 3 3 4 3 2 1 1 2 2 1 0 0 0 0 0 0 0 0 0 0 0 0
0 0 0 0 0 0 0 0 0 0 0 0 0 0 0 0 0 0 0 0 0 0 0 0 0 1 2 2 2 3 4 3 1 0 1 1 0 0 0 0 0 0 0 0 0 0 0 0 0
0 0 0 0 0 0 0 0 0 0 0 0 0 0 0 0 0 0 0 0 0 0 0 0 0 0 1 1 1 2 3 3 2 0 0 0 0 0 0 0 0 0 0 0 0 0 0 0 0
0 0 0 0 0 0 0 0 0 0 0 0 0 0 0 0 0 0 0 0 0 0 0 0 0 0 0 0 0 1 1 2 1 0 0 0 0 0 0 0 0 0 0 0 0 0 0 0 0
0 0 0 0 0 0 0 0 0 0 0 0 0 0 0 0 0 0 0 0 0 0 0 0 0 0 0 0 0 0 0 0 0 0 0 0 0 0 0 0 0 0 0 0 0 0 0 0 0
0 0 0 0 0 0 0 0 0 0 0 0 0 0 0 0 0 0 0 0 0 0 0 0 0 0 0 0 0 0 0 0 0 0 0 0 0 0 0 0 0 0 0 0 0 0 0 0 0
0 0 0 0 0 0 0 0 0 0 0 0 0 0 0 0 0 0 0 0 0 0 0 0 0 0 0 0 0 0 0 0 0 0 0 0 0 0 0 0 0 0 0 0 0 0 0 0 0
0 0 0 0 0 0 0 0 0 0 0 0 0 0 0 0 0 0 0 0 0 0 0 0 0 0 0 0 0 0 0 0 0 0 0 0 0 0 0 0 0 0 0 0 0 0 0 0 0
0 0 0 0 0 0 0 0 0 0 0 0 0 0 0 0 0 0 0 0 0 0 0 0 0 0 0 0 0 0 0 0 0 0 0 0 1 0 0 0 0 0 0 0 0 0 0 0 0
0 0 0 0 0 0 0 0 0 0 0 0 0 0 0 0 0 0 0 0 0 0 0 0 0 0 0 0 0 0 0 0 0 0 0 0 0 0 0 0 0 0 0 0 0 0 0 0 0
0 0 0 0 0 0 0 0 0 0 0 0 0 0 0 0 0 0 0 0 0 0 0 0 0 0 0 0 0 0 0 0 0 0 0 0 0 0 0 0 0 0 0 0 0 0 0 0 0
0 0 0 0 0 0 0 0 0 0 0 0 0 0 0 0 0 0 0 0 0 0 0 0 0 0 0 0 0 0 0 0 0 0 0 0 0 0 0 0 0 0 1 1 1 0 0 0 0
0 0 0 0 0 0 0 0 0 0 0 0 0 0 0 0 0 0 0 0 0 0 0 0 0 0 0 0 0 0 0 0 0 0 0 0 0 0 0 0 0 0 1 2 1 0 0 0 0
0 0 0 0 0 0 0 0 0 0 0 0 0 0 0 0 0 0 0 0 0 0 0 0 0 0 0 0 0 0 0 0 0 0 0 0 0 0 0 0 0 0 1 2 1 0 0 0 0
Wind_Speed
6 4 2 4 5 3 2 4 2 1 0 0 2 5 6 3 2 2 2 5 7 7 5 6 7 9 9 8 8 8 8 8 8 9 9 9 9 9 9 8 8 8 8 8 8 8 8 9 9
2 2 4 4 4 2 4 3 2 2 3 2 3 4 5 2 2 4 3 5 8 7 6 6 7 9 9 9 8 8 8 8 8 9 9 9 9 9 8 8 7 8 8 8 8 8 8 8 8
2 1 4 4 3 5 4 3 3 1 1 2 3 3 3 2 2 3 4 8 7 6 5 6 8 8 9 8 8 7 7 7 8 8 8 8 9 8 7 7 7 7 7 7 7 8 8 8 8
2 4 4 3 3 4 4 3 3 2 1 2 4 3 2 1 2 3 6 9 8 6 5 6 8 8 8 8 7 7 7 7 7 8 8 8 8 8 7 6 6 6 7 7 7 7 7 7 7
3 4 3 1 3 3 3 3 4 3 2 1 3 3 1 2 2 6 8 9 9 6 4 6 8 8 8 8 7 7 7 7 7 7 7 7 7 7 6 6 6 6 7 7 7 7 7 7 7
3 4 3 3 4 3 3 2 3 2 2 2 4 4 2 1 4 5 6 7 8 7 5 5 7 7 7 7 7 6 6 7 7 7 7 7 7 7 6 6 6 6 6 6 7 7 7 6 7
3 3 3 4 3 3 3 1 2 3 2 3 4 5 2 1 2 5 6 6 7 6 5 4 4 5 6 6 5 5 6 6 6 6 6 6 6 6 6 5 6 6 6 6 7 7 6 6 7
3 3 2 3 3 4 2 0 1 3 2 1 4 6 5 5 4 6 6 6 6 5 4 4 3 3 3 3 5 5 5 5 5 5 5 5 5 4 4 4 5 5 6 6 6 6 6 6 6
3 3 3 4 4 3 1 1 1 1 2 1 2 2 3 7 7 7 5 4 4 4 3 3 3 3 3 3 4 4 4 4 4 3 5 4 2 2 2 3 4 5 5 6 6 6 5 5 5
3 3 5 3 3 2 2 2 2 1 1 1 1 3 4 7 7 7 6 5 5 4 3 3 3 3 3 3 3 2 2 2 2 2 2 2 2 2 3 4 4 4 5 5 5 5 4 4 2
3 5 3 3 2 1 1 1 1 4 3 5 6 6 6 6 6 6 6 6 5 5 4 3 3 3 3 2 2 2 1 2 2 2 3 2 2 2 2 2 2 2 3 2 2 2 1 1 1
2 3 3 2 1 1 2 1 1 4 6 4 5 8 8 8 7 7 7 5 4 4 4 4 4 3 3 2 2 2 2 2 2 2 3 3 2 2 2 1 1 1 1 2 1 1 1 1 1
3 3 2 2 2 2 2 3 3 5 5 2 4 7 9 8 7 5 5 4 4 4 5 5 4 4 3 3 2 2 2 2 2 2 2 3 3 2 2 2 1 1 1 1 1 1 1 1 1
3 2 3 3 3 2 3 4 3 7 3 3 5 6 8 8 7 5 4 4 4 5 4 4 5 5 4 3 3 2 2 2 2 2 3 3 3 3 3 2 2 1 1 1 1 2 1 1 1
0 1 4 4 4 2 1 6 7 7 3 4 5 6 6 7 7 7 7 6 6 5 4 4 4 4 5 5 4 3 2 2 2 2 3 3 3 3 3 3 2 2 1 1 1 1 1 1 1
1 0 3 4 3 2 4 9 7 4 5 5 5 5 6 6 6 7 7 6 5 5 5 4 4 4 4 4 4 3 3 3 2 2 2 3 4 4 3 3 2 2 2 2 2 1 1 0 0
0 3 5 5 3 3 5 8 6 3 4 5 5 5 5 5 5 5 6 6 6 6 5 5 4 4 4 4 4 3 3 3 2 2 2 2 3 4 3 3 2 2 2 1 2 1 1 1 0
5 4 4 5 3 4 5 9 9 4 4 6 5 5 5 6 7 6 6 6 5 5 5 5 4 4 3 3 3 2 2 2 2 2 2 3 3 3 3 3 2 3 2 2 1 1 1 1 1
3 3 5 5 3 3 7 10 11 7 4 6 6 5 6 7 5 3 4 4 4 4 5 5 4 4 3 3 3 3 4 3 2 2 3 3 3 3 3 3 3 2 3 3 2 1 1 0 1
4 5 6 5 2 3 5 9 9 6 6 7 6 7 7 5 2 3 3 3 4 5 5 5 5 5 4 3 3 3 3 2 2 2 3 3 3 3 3 4 3 3 2 2 2 2 1 1 1
6 6 6 5 3 2 2 8 5 4 2 3 4 5 5 6 6 5 4 5 4 5 6 6 5 5 4 3 2 2 1 1 1 2 3 3 4 4 4 4 4 3 3 3 3 3 3 2 1
6 4 5 4 1 4 2 5 6 4 3 3 4 4 5 4 4 4 4 4 5 5 5 5 5 5 4 4 4 4 4 3 3 3 2 3 3 4 4 4 4 4 3 3 3 3 2 3 2
5 1 1 2 2 3 2 4 9 2 4 5 5 4 4 3 4 4 4 5 4 3 4 4 4 4 4 4 5 4 3 2 1 2 2 2 2 3 3 4 4 4 3 3 3 3 3 3 3
2 2 2 2 2 4 5 6 8 4 6 5 4 3 2 2 2 2 2 2 2 2 2 3 4 4 3 4 4 4 4 3 2 2 3 2 2 2 3 3 3 4 3 4 4 4 4 3 3
2 4 2 3 1 7 2 5 10 6 5 5 5 3 2 1 1 1 1 1 2 2 2 3 4 3 3 4 4 4 4 4 5 4 4 3 3 3 4 3 3 4 4 4 4 4 4 4 4
4 5 6 5 5 5 2 7 8 4 3 2 2 1 0 0 0 1 1 1 1 2 2 3 3 3 3 3 4 3 3 3 3 3 3 4 4 4 4 4 4 4 4 4 4 3 4 4 4
4 4 3 4 0 3 5 6 7 1 1 0 1 1 1 0 0 0 1 1 1 1 2 2 3 2 2 3 3 2 3 3 3 3 3 3 3 3 4 4 4 4 4 4 4 3 4 3 4
2 4 3 4 4 4 5 5 5 4 3 1 1 1 1 1 1 1 0 1 0 0 1 1 2 2 2 2 2 2 2 3 3 3 3 3 3 3 4 4 4 4 3 3 3 3 3 3 4
4 3 3 3 4 5 4 7 5 5 4 3 2 1 1 1 1 0 0 0 0 1 1 1 1 1 1 1 1 1 1 1 2 2 3 3 3 3 4 4 4 4 4 3 3 3 3 4 4
5 6 7 5 5 4 4 7 3 3 3 3 2 1 1 1 1 0 0 0 1 1 1 0 0 0 1 1 1 1 1 0 1 1 2 2 2 3 3 3 4 4 4 4 4 4 4 4 5
Wind_Direction
330 337 66 60 59 60 232 242 213 182 112 262 95 99 106 109 139 164 131 133 131 140 149 148 138 136 133 129 127 124 119 116 119 118 116 114 111 110 107 104 100 100 97 93 92 92 90 87 85
329 359 58 64 97 148 252 245 209 210 185 156 81 89 88 86 81 111 130 141 135 140 143 145 135 132 131 129 126 125 121 117 116 118 117 115 112 108 103 100 100 99 97 96 96 95 93 92 89
321 59 85 88 140 184 213 222 204 202 160 121 81 61 94 130 130 148 157 142 130 134 138 142 137 134 130 130 126 125 121 119 117 119 119 118 115 110 106 104 103 101 97 98 97 93 96 94 89
48 52 63 93 207 224 213 214 191 152 54 62 109 77 59 22 163 151 139 134 127 129 131 140 140 139 135 134 132 128 125 123 121 122 123 119 115 111 108 109 108 104 102 103 99 93 93 92 90
61 81 86 176 233 249 239 226 186 158 152 118 120 120 92 347 92 124 136 135 133 132 131 142 140 141 139 135 133 130 128 128 129 127 125 121 118 114 112 110 111 109 109 106 101 94 91 89 89
62 76 119 210 232 256 265 234 170 150 154 139 127 129 160 123 115 134 136 136 135 136 132 139 136 135 136 137 132 127 126 128 130 127 126 124 119 116 115 112 115 114 112 108 102 94 88 87 85
111 118 183 203 213 248 255 247 160 158 164 187 151 134 165 201 165 137 130 128 127 131 133 139 143 137 134 133 130 125 126 127 125 124 123 122 122 120 118 117 115 116 109 104 99 92 85 84 81
135 123 197 213 206 232 250 141 152 153 181 184 134 150 189 201 161 120 111 112 118 121 133 140 142 140 141 140 135 125 127 129 125 120 118 115 117 114 111 116 117 115 114 107 100 92 86 82 78
110 100 210 213 200 221 230 156 319 46 108 67 77 159 173 144 129 113 104 104 121 125 131 138 138 141 144 147 141 131 127 130 126 120 121 116 117 114 107 108 117 117 114 110 104 94 84 73 68
117 180 221 218 198 196 210 199 191 109 94 98 64 52 103 124 131 138 147 154 155 159 161 147 141 145 143 149 139 140 133 132 125 119 125 125 119 110 102 97 106 105 105 105 102 91 78 62 47
167 199 219 242 227 201 203 231 193 158 215 209 190 169 148 138 145 157 168 171 175 171 163 158 155 147 147 151 153 151 145 141 132 130 125 122 118 108 95 95 91 93 93 91 89 77 65 66 63
186 239 228 240 232 203 219 220 236 200 215 204 182 160 155 161 171 175 178 180 176 170 174 170 164 157 154 152 164 161 154 158 157 159 143 129 124 120 126 120 110 99 101 113 109 109 83 64 56
221 247 255 249 248 239 228 227 227 242 234 188 145 149 166 176 186 186 179 172 165 177 182 179 174 170 167 157 172 162 167 169 160 158 157 146 143 143 136 131 126 126 129 140 139 139 134 112 79
213 239 278 275 262 260 235 257 228 251 213 177 167 172 180 185 187 181 180 181 184 187 188 184 183 180 173 171 176 171 168 163 156 160 167 155 151 152 147 139 143 149 156 160 157 160 163 167 150
192 321 302 260 232 234 191 281 233 238 176 183 194 194 193 195 186 190 194 193 192 190 188 185 185 183 180 176 180 172 172 160 160 170 170 159 155 154 152 152 159 166 161 149 137 130 135 145 127
56 153 272 268 205 189 160 256 256 225 180 207 214 210 208 209 202 201 198 194 190 185 186 190 182 181 188 184 181 175 169 164 167 165 163 161 158 154 151 156 167 166 155 148 150 147 134 139 144
205 225 236 270 219 183 192 247 263 226 183 216 223 217 215 220 224 215 201 194 188 187 185 185 182 184 189 187 180 168 162 165 167 157 159 164 159 155 153 161 168 157 147 151 159 145 142 163 199
213 219 232 236 239 192 221 253 271 264 213 229 233 225 219 219 225 215 204 194 186 184 182 181 179 181 180 174 161 152 154 169 164 169 177 168 166 161 153 155 161 156 152 155 151 145 132 161 181
211 219 243 248 246 218 235 257 269 265 244 243 241 230 228 230 229 203 193 184 175 175 178 180 179 180 167 167 171 175 190 187 181 186 178 169 165 164 158 159 162 165 168 169 162 148 151 150 106
243 253 261 279 267 235 258 270 269 256 238 231 230 229 229 232 222 196 190 179 183 186 188 186 185 182 180 184 184 185 180 190 188 179 180 179 173 177 172 169 176 178 170 161 162 145 155 189 153
236 229 237 254 313 295 302 294 268 269 248 248 236 229 224 214 210 206 201 202 191 193 195 194 193 186 186 170 144 124 109 107 166 193 196 194 183 184 184 184 180 182 176 182 186 179 170 185 204
244 234 221 227 244 269 207 280 273 247 281 272 260 250 239 225 209 204 200 199 199 205 198 191 186 184 180 166 160 162 177 189 205 198 196 191 187 186 188 191 186 185 187 189 193 187 189 171 190
220 240 214 212 203 271 233 237 277 248 255 260 257 251 246 230 205 198 197 200 200 196 187 182 176 178 174 172 174 178 188 197 185 170 170 185 196 196 192 192 195 192 193 193 193 191 190 190 188
168 61 29 45 85 258 219 201 270 233 225 241 246 252 247 223 202 201 199 181 183 172 169 169 171 179 172 176 179 189 194 186 174 189 188 197 204 209 207 200 203 202 200 198 201 201 199 205 201
136 112 33 347 307 248 213 208 249 243 230 221 224 235 255 221 176 171 161 169 180 169 172 172 172 182 180 183 193 202 204 199 200 201 203 203 207 214 215 209 210 210 209 204 201 204 207 208 210
194 166 172 202 225 270 247 230 252 257 251 229 198 193 104 56 142 151 173 178 187 182 176 175 181 189 187 194 205 208 208 210 217 212 209 210 214 214 207 206 213 212 206 204 200 208 213 211 215
163 201 184 142 131 275 259 270 289 289 319 101 106 96 66 308 207 139 121 147 166 166 179 180 178 184 195 200 202 207 213 215 221 218 215 214 216 207 200 198 206 209 206 203 198 210 215 212 217
183 155 126 151 178 245 271 255 244 241 242 222 176 185 273 326 6 40 92 149 162 163 165 151 169 190 202 195 198 209 217 219 217 206 211 219 217 204 193 196 202 205 205 203 201 212 214 210 225
168 180 172 170 184 183 247 263 230 213 205 192 213 223 221 213 213 264 9 177 138 78 96 117 153 157 192 211 216 224 230 229 211 212 217 217 216 204 199 201 200 205 204 202 205 216 213 219 230
191 194 173 179 221 207 220 264 277 203 202 180 200 224 240 204 205 198 110 100 94 78 67 86 128 205 230 218 204 232 270 2 206 230 233 218 213 204 199 197 198 205 206 203 207 218 218 222 231